This is the latest recevied weather packets stored in our database for station/object KY0TEQ-13. If no packets are shown the sender has not sent any weather packets the latest 10 day(s).
| Time | Temp. | Humidity | Pressure | Rain* | Wind** | Luminosity | Snow |
|---|---|---|---|---|---|---|---|
| 1788097321 | 15.56° C | 63% | 1311 hPa | 0 mm | - | 93 W/m² | - |
| 1788097016 | 15° C | 64% | 1310.8 hPa | 0 mm | - | 72 W/m² | - |
| 1788096712 | 14.44° C | 66% | 1310.8 hPa | 0 mm | - | 61 W/m² | - |
| 1788096403 | 13.89° C | 70% | 1311 hPa | 0 mm | - | 53 W/m² | - |
| 1788096098 | 13.89° C | 68% | 1311.1 hPa | 0 mm | - | 43 W/m² | - |
| 1788095796 | 13.89° C | 68% | 1311 hPa | 0 mm | - | 37 W/m² | - |
| 1788095491 | 13.89° C | 67% | 1311 hPa | 0 mm | - | 29 W/m² | - |
| 1788095186 | 13.89° C | 68% | 1311.1 hPa | 0 mm | - | 21 W/m² | - |
| 1788094881 | 13.33° C | 69% | 1311 hPa | 0 mm | - | 15 W/m² | - |
| 1788094580 | 13.33° C | 69% | 1311 hPa | 0 mm | - | 11 W/m² | - |
| 1788094280 | 13.89° C | 69% | 1310.8 hPa | 0 mm | - | 7 W/m² | - |
| 1788093978 | 13.89° C | 68% | 1310.7 hPa | 0 mm | - | 4 W/m² | - |
| 1788093674 | 13.89° C | 68% | 1310.6 hPa | 0 mm | - | 2 W/m² | - |
| 1788093371 | 13.89° C | 69% | 1310.7 hPa | 0 mm | - | 1 W/m² | - |
| 1788093066 | 14.44° C | 67% | 1310.7 hPa | 0 mm | - | 0 W/m² | - |
| 1788092763 | 14.44° C | 67% | 1310.5 hPa | 0 mm | - | 0 W/m² | - |
| 1788092459 | 14.44° C | 67% | 1310.6 hPa | 0 mm | - | 0 W/m² | - |
| 1788092154 | 14.44° C | 66% | 1310.6 hPa | 0 mm | - | 0 W/m² | - |
| 1788091853 | 14.44° C | 66% | 1310.4 hPa | 0 mm | - | 0 W/m² | - |
| 1788091549 | 14.44° C | 66% | 1310.2 hPa | 0 mm | - | 0 W/m² | - |
| 1788091245 | 14.44° C | 67% | 1310.2 hPa | 0 mm | - | 0 W/m² | - |
| 1788090941 | 13.89° C | 68% | 1310.6 hPa | 0 mm | - | 0 W/m² | - |
| 1788090636 | 14.44° C | 67% | 1310.5 hPa | 0 mm | - | 0 W/m² | - |
| 1788090333 | 13.89° C | 66% | 1310.4 hPa | 0 mm | - | 0 W/m² | - |
| 1788090032 | 13.89° C | 67% | 1310.4 hPa | 0 mm | - | 0 W/m² | - |
* Rain latest hour (hover to see other rain measurements)
** Current wind speed in m/s (hover to see current wind gust speed)